Location: ?????
(55.6500°N, 37.2500°E)
Time: 01:35:01
(UTC+00:00)

Spot 2 Rocket - Pass Details

Date: 19 May 2025
Orbit: 753 x 766 km, 98.3° (Epoch: 14 June)

Event Time Altitude Azimuth Distance (km) Brightness Sun altitude
Exits shadow 18:37:36 - 172° (S) 2,902 6.0 -6.3°
Reaches altitude 10° 18:39:10 10° 174° (S) 2,277 5.5 -6.4°
Maximum altitude 18:44:09 66° 257° (WSW) 826 3.8 -6.9°
Drops below altitude 10° 18:49:12 10° 340° (NNW) 2,300 7.4 -7.3°
Sets 18:51:32 0° 343° (NNW) 3,231 8.3 -7.5°
